Hourly Data Report for October 20, 2014

All times are specified in Local Standard Time (LST). Add 1 hour to adjust for Daylight Saving Time where and when it is observed.

RANKIN INLET A
NUNAVUT

62°48'38.000" N
92°06'53.000" W
32.30 m
2303405
71083
YRT

Download Data

Hourly Data (October 2014)
Hourly Data Report for October 20, 2014
Temp Definition
°C
Dew Point Temp Definition
°C
Rel Hum Definition
%
Wind Dir Definition
10's deg

Wind Spd Definition
km/h
Visibility Definition
km
Stn Press Definition
kPa
Hmdx Definition


Wind Chill Definition


Weather Definition


TIME
00:00 Legend Double Dagger -2.1 -2.7 96 34 36 24.1 100.87   -10 Snow
01:00 Legend Double Dagger -5.2 -6.4 91 33 28 24.1 100.97   -13 LegendNANA
02:00 Legend Double Dagger -6.6 -7.8 91 33 26 24.1 101.05   -15 LegendNANA
03:00 Legend Double Dagger -7.6 -9.0 90 35 27 24.1 101.13   -16 Clear
04:00 Legend Double Dagger -8.2 -9.7 89 35 27 24.1 101.20   -17 LegendNANA
05:00 Legend Double Dagger -7.7 -9.1 90 35 19 24.1 101.23   -15 LegendNANA
06:00 Legend Double Dagger -6.3 -7.7 90 32 13 24.1 101.30   -12 Clear
07:00 Legend Double Dagger -5.5 -6.7 91 34 19 24.1 101.35   -12 LegendNANA
08:00 Legend Double Dagger -5.6 -6.7 92 34 17 24.1 101.38   -12 LegendNANA
09:00 Legend Double Dagger -6.0 -7.0 93 33 19 24.1 101.43   -13 Mostly Cloudy
10:00 Legend Double Dagger -6.5 -7.9 90 34 17 24.1 101.47   -13 LegendNANA
11:00 Legend Double Dagger -6.6 -8.3 88 32 15 24.1 101.48   -13 LegendNANA
12:00 Legend Double Dagger -6.5 -8.5 86 33 13 24.1 101.46   -12 Mainly Clear
13:00 Legend Double Dagger -6.5 -8.8 84 31 11 24.1 101.47   -11 LegendNANA
14:00 Legend Double Dagger -6.6 -9.0 83 32 11 24.1 101.47   -12 LegendNANA
15:00 Legend Double Dagger -7.0 -9.1 85 32 8 24.1 101.45   -11 Mainly Clear
16:00 Legend Double Dagger -8.1 -9.6 89 31 9 24.1 101.47   -13 LegendNANA
17:00 Legend Double Dagger -7.5 -9.0 89 6 4 24.1 101.41   -10 LegendNANA
18:00 Legend Double Dagger -5.6 -6.6 93 16 5 16.1 101.43   -8 Snow
19:00 Legend Double Dagger -5.5 -6.7 91 16 9 24.1 101.36   -10 LegendNANA
20:00 Legend Double Dagger -5.0 -6.3 91 17 16 24.1 101.28   -11 LegendNANA
21:00 Legend Double Dagger -4.2 -5.0 94 15 23 24.1 101.13   -11 Cloudy
22:00 Legend Double Dagger -2.8 -3.9 92 15 30 24.1 101.03   -10 LegendNANA
23:00 Legend Double Dagger -1.8 -2.9 92 16 29 24.1 100.97   -9 LegendNANA

Notes on Data Quality.

Legend

  • E = Estimated
  • M = Missing
  • NA = Not Available
  • ‡ = Partner data that is not subject to review by the National Climate Archives
Date modified: